Torna al catalogo

FENGYUN 1C DEB

AttivoSSO
NORAD 30680·DEBRIS·🇨🇳 China

Lanciato May 10, 1999 da Taiyuan Satellite Launch Center

Loading…

Prossimi Passaggi (prossime 24 ore)

TLE

AggiornatoSource: Space-Track

Epoca: Sep 14, 2026, 01:43 UTC

1 30680U 99025AQN 26257.07205037  .00003247  00000-0  32910-2 0  9991
2 30680  99.6464 299.5147 0317164 193.0695 166.2082 13.57818629959883

Traccia FENGYUN 1C DEB in tempo reale con AllMySat

Download on the App Store